STARLINK-1151, 45081

Orbit data source: Space-Track

STARLINK-1151, 45081 is a payload satellite owned by SpaceX/Seattle (US) in LEO that was launched on Wed, 29 Jan 2020 UTC via an FALCON 9 launch vehicle from the Air Force Eastern Test Range (AFETR). Payload-class satellites include a variety of spacecraft equipped with specific instruments for various scientific and technological missions. These include communications satellites like Starlink; space stations such as the ISS; scientific satellites like the Hubble; Earth observation satellites from companies like Planet Labs, Umbra, and HawkEye 360; GPS; miniature CubeSats for education and research; and military/defense satellites.

Loading next visibility...
Identifier
45081, 2020-006AP
Orbit
LEO
Last TLE update
10 hours ago
Origin
Manufacturer
SpaceX/Seattle
Mission
Operational Commercial Communications
Bus & Motor
STARLINK, Unknown motor
Mass
260 kg wet, ~248 kg dry
Launch date (UTC)
2020-01-29 (5 years ago)
Launch vehicle
FALCON 9
Launch site
Air Force Eastern Test Range (AFETR)
Object type
Payload
Rocket body
Debris
Shape & HBR
Box + 1 Pan, 8.86 m
Radar Cross Section
13.562 m², Large (>1 m²)

Expand to show TLE details & history

TLE from 10 hours ago
0 STARLINK-1151
1 45081U 20006AP  25181.84842288  .00002291  00000-0  17267-3 0  9997
2 45081  53.0555 317.2529 0001162  84.7183 275.3938 15.06391477299137
Epoch: 2025-06-30T20:21Z
TLE epoch observation values (Epoch: 2025-06-30T20:21:43.736Z)
Latitude
-0.00008°
Longitude
92.66826°
Altitude
548.041 km
Speed
7.589 km/s
True Right ascension
21h 09m 00s
True Declination
0° 00' 00"
Sunlit
Object was in full shadow at epoch
Visualization orbit readout
Latitude
8.04442°
Longitude
-95.32737°
Altitude
547.338 km
Speed
7.59 km/s
Apparent Right ascension
07h 39m 23s
Apparent Declination
-15° 27' 47"
Sunlit
Object is in daylight
Visualization observer readout
Local Sidereal Time
18:17:50
Azimuth
318.178° NNW
Elevation
-59.768°
Doppler factor
1
Orbital elements
Apogee altitude
548.313 km
Perigee altitude
546.703 km
Semi-major axis
6,925.645 km
Eccentricity
0.00012
Inclination
53.0555°
RAAN
317.2529°
Arg. of periapsis
84.7183°
True anomaly
Unknown
Mean anomaly
275.3938°
Eccentric anomaly
Unknown
Mean motion
3.76576 °/min
Orbital period
95.6 mins
BSTAR
0.00017267
Loading maneuver chart data...
Loading SW <> Apogee altitude chart data...

STARLINK-1151 Visibility forecast

Observer location: undefined°, undefined°

Span
Click to sort rows by Start time (UTC) header in descending order
Start Az.
Max El. time (UTC)
Max El. Az.
Max El.
End time (UTC)
End Az.
5 mins2025-07-01 10:51:01.056Z178.218° S2025-07-01 10:53:01.056Z142.41° SSE23.201°2025-07-01 10:56:01.056Z81.522° E
6 mins2025-07-01 12:30:01.056Z258.722° W2025-07-01 12:33:01.056Z334.326° NNW35.166°2025-07-01 12:36:01.056Z36.448° NE
6 mins2025-07-01 17:32:01.056Z333.152° NNW2025-07-01 17:35:01.056Z39.845° NE27.534°2025-07-01 17:38:01.056Z91.27° ESE
6 mins2025-07-01 19:12:01.056Z285.82° WNW2025-07-01 19:14:01.056Z236.837° WSW33.531°2025-07-01 19:18:01.056Z155.969° SSE
|